Time,TemperatureF,DewpointF,PressureIn,WindDirection,WindDirectionDegrees,WindSpeedMPH,WindSpeedGustMPH,Humidity,HourlyPrecipIn,Conditions,Clouds,dailyrainin,SoftwareType,DateUTC
2013-08-29 00:10:00,72.3,59.0,29.85,WNW,285,0.0,1.0,64,0.00,,,0.00,weatherlink.com 1.10,2013-08-29 07:10:00,
2013-08-29 00:25:00,71.9,59.0,29.84,WNW,285,0.0,0.0,65,0.00,,,0.00,weatherlink.com 1.10,2013-08-29 07:25:00,
2013-08-29 00:40:00,71.7,60.0,29.84,WNW,284,0.0,0.0,66,0.00,,,0.00,weatherlink.com 1.10,2013-08-29 07:40:00,
2013-08-29 00:55:00,71.5,60.0,29.84,WNW,284,0.0,1.0,67,0.00,,,0.00,weatherlink.com 1.10,2013-08-29 07:55:00,
2013-08-29 01:10:00,71.5,60.0,29.84,WNW,285,0.0,1.0,67,0.00,,,0.00,weatherlink.com 1.10,2013-08-29 08:10:00,
2013-08-29 01:25:00,71.4,60.0,29.84,WNW,291,0.0,2.0,68,0.00,,,0.00,weatherlink.com 1.10,2013-08-29 08:25:00,
2013-08-29 01:40:00,71.1,61.0,29.83,WNW,284,0.0,3.0,70,0.00,,,0.00,weatherlink.com 1.10,2013-08-29 08:40:00,
2013-08-29 01:55:00,70.7,61.0,29.84,WNW,299,0.0,1.0,71,0.00,,,0.00,weatherlink.com 1.10,2013-08-29 08:55:00,
2013-08-29 02:11:00,70.2,61.0,29.84,WNW,299,0.0,0.0,72,0.00,,,0.00,weatherlink.com 1.10,2013-08-29 09:11:00,
2013-08-29 02:26:00,70.0,61.0,29.84,WNW,299,0.0,1.0,72,0.00,,,0.00,weatherlink.com 1.10,2013-08-29 09:26:00,
2013-08-29 02:41:00,70.0,61.0,29.84,WNW,298,0.0,0.0,73,0.00,,,0.00,weatherlink.com 1.10,2013-08-29 09:41:00,
2013-08-29 02:56:00,69.7,61.0,29.84,WNW,299,0.0,0.0,74,0.00,,,0.00,weatherlink.com 1.10,2013-08-29 09:56:00,
2013-08-29 03:11:00,69.5,61.0,29.84,WNW,298,0.0,0.0,74,0.00,,,0.00,weatherlink.com 1.10,2013-08-29 10:11:00,
2013-08-29 03:26:00,69.4,61.0,29.84,WNW,299,0.0,0.0,74,0.00,,,0.00,weatherlink.com 1.10,2013-08-29 10:26:00,
2013-08-29 03:41:00,69.3,61.0,29.83,WNW,299,0.0,0.0,75,0.00,,,0.00,weatherlink.com 1.10,2013-08-29 10:41:00,
2013-08-29 03:56:00,69.4,62.0,29.83,WNW,297,0.0,0.0,76,0.00,,,0.00,weatherlink.com 1.10,2013-08-29 10:56:00,
2013-08-29 04:11:00,69.2,61.0,29.83,WNW,297,0.0,0.0,76,0.00,,,0.00,weatherlink.com 1.10,2013-08-29 11:11:00,
2013-08-29 04:26:00,68.9,61.0,29.84,WNW,283,0.0,0.0,76,0.00,,,0.00,weatherlink.com 1.10,2013-08-29 11:26:00,
2013-08-29 04:41:00,69.0,62.0,29.84,WNW,283,0.0,1.0,77,0.00,,,0.00,weatherlink.com 1.10,2013-08-29 11:41:00,
2013-08-29 04:56:00,68.8,61.0,29.84,WNW,283,0.0,0.0,77,0.00,,,0.00,weatherlink.com 1.10,2013-08-29 11:56:00,
2013-08-29 05:11:00,68.6,61.0,29.85,WNW,283,0.0,1.0,77,0.00,,,0.00,weatherlink.com 1.10,2013-08-29 12:11:00,
2013-08-29 05:26:00,68.3,61.0,29.84,WNW,283,0.0,0.0,78,0.00,,,0.00,weatherlink.com 1.10,2013-08-29 12:26:00,
2013-08-29 05:41:00,68.0,61.0,29.85,WNW,283,0.0,0.0,78,0.00,,,0.00,weatherlink.com 1.10,2013-08-29 12:41:00,
2013-08-29 05:56:00,68.1,61.0,29.84,WNW,283,0.0,1.0,79,0.00,,,0.00,weatherlink.com 1.10,2013-08-29 12:56:00,
2013-08-29 06:11:00,68.0,61.0,29.85,WNW,283,0.0,1.0,79,0.00,,,0.00,weatherlink.com 1.10,2013-08-29 13:11:00,
2013-08-29 06:26:00,68.0,61.0,29.86,WNW,283,0.0,0.0,79,0.00,,,0.00,weatherlink.com 1.10,2013-08-29 13:26:00,
2013-08-29 06:41:00,68.1,61.0,29.86,WNW,283,0.0,1.0,79,0.00,,,0.00,weatherlink.com 1.10,2013-08-29 13:41:00,
2013-08-29 06:56:00,69.3,62.0,29.87,WNW,283,0.0,0.0,78,0.00,,,0.00,weatherlink.com 1.10,2013-08-29 13:56:00,
2013-08-29 07:11:00,70.6,62.0,29.87,WNW,283,0.0,1.0,75,0.00,,,0.00,weatherlink.com 1.10,2013-08-29 14:11:00,
2013-08-29 07:26:00,71.3,63.0,29.87,West,272,0.0,3.0,74,0.00,,,0.00,weatherlink.com 1.10,2013-08-29 14:26:00,
2013-08-29 07:41:00,73.0,63.0,29.87,West,274,0.0,2.0,71,0.00,,,0.00,weatherlink.com 1.10,2013-08-29 14:41:00,
2013-08-29 07:56:00,74.1,63.0,29.87,West,276,1.0,3.0,69,0.00,,,0.00,weatherlink.com 1.10,2013-08-29 14:56:00,
2013-08-29 08:11:00,75.8,63.0,29.87,WNW,283,0.0,3.0,65,0.00,,,0.00,weatherlink.com 1.10,2013-08-29 15:11:00,
2013-08-29 08:26:00,77.4,62.0,29.87,NW,323,2.0,4.0,60,0.00,,,0.00,weatherlink.com 1.10,2013-08-29 15:26:00,
2013-08-29 08:41:00,78.8,62.0,29.87,West,270,0.0,2.0,56,0.00,,,0.00,weatherlink.com 1.10,2013-08-29 15:41:00,
2013-08-29 08:56:00,81.5,62.0,29.88,SSE,155,1.0,2.0,52,0.00,,,0.00,weatherlink.com 1.10,2013-08-29 15:56:00,
2013-08-29 09:11:00,82.1,61.0,29.88,SSW,192,0.0,2.0,49,0.00,,,0.00,weatherlink.com 1.10,2013-08-29 16:11:00,
2013-08-29 09:26:00,83.5,61.0,29.88,North,354,0.0,3.0,46,0.00,,,0.00,weatherlink.com 1.10,2013-08-29 16:26:00,
2013-08-29 09:41:00,85.0,61.0,29.88,WNW,290,1.0,2.0,44,0.00,,,0.00,weatherlink.com 1.10,2013-08-29 16:41:00,
2013-08-29 09:56:00,86.6,58.0,29.87,WNW,287,1.0,3.0,38,0.00,,,0.00,weatherlink.com 1.10,2013-08-29 16:56:00,
2013-08-29 10:11:00,87.6,57.0,29.87,WNW,288,0.0,5.0,36,0.00,,,0.00,weatherlink.com 1.10,2013-08-29 17:11:00,
2013-08-29 10:27:00,89.3,56.0,29.87,WNW,287,2.0,6.0,32,0.00,,,0.00,weatherlink.com 1.10,2013-08-29 17:27:00,
2013-08-29 10:42:00,90.7,56.0,29.87,NNW,328,1.0,6.0,31,0.00,,,0.00,weatherlink.com 1.10,2013-08-29 17:42:00,
2013-08-29 10:57:00,92.5,56.0,29.87,West,279,0.0,4.0,29,0.00,,,0.00,weatherlink.com 1.10,2013-08-29 17:57:00,
2013-08-29 11:12:00,94.0,58.0,29.87,West,263,1.0,5.0,30,0.00,,,0.00,weatherlink.com 1.10,2013-08-29 18:12:00,
2013-08-29 11:27:00,93.8,62.0,29.86,SSW,199,3.0,6.0,35,0.00,,,0.00,weatherlink.com 1.10,2013-08-29 18:27:00,
2013-08-29 11:42:00,93.5,62.0,29.86,WSW,238,3.0,6.0,35,0.00,,,0.00,weatherlink.com 1.10,2013-08-29 18:42:00,
2013-08-29 11:57:00,93.2,62.0,29.86,SE,143,2.0,7.0,35,0.00,,,0.00,weatherlink.com 1.10,2013-08-29 18:57:00,
2013-08-29 12:12:00,93.4,60.0,29.86,SE,146,7.0,7.0,33,0.00,,,0.00,weatherlink.com 1.10,2013-08-29 19:12:00,
2013-08-29 12:27:00,93.9,57.0,29.85,ESE,122,4.0,6.0,29,0.00,,,0.00,weatherlink.com 1.10,2013-08-29 19:27:00,
2013-08-29 12:42:00,95.2,57.0,29.85,SSW,213,2.0,7.0,28,0.00,,,0.00,weatherlink.com 1.10,2013-08-29 19:42:00,
2013-08-29 12:57:00,95.9,57.0,29.85,WSW,250,2.0,9.0,27,0.00,,,0.00,weatherlink.com 1.10,2013-08-29 19:57:00,
2013-08-29 13:12:00,96.8,59.0,29.84,SSE,151,5.0,8.0,28,0.00,,,0.00,weatherlink.com 1.10,2013-08-29 20:12:00,
2013-08-29 13:27:00,98.9,58.0,29.83,SW,214,3.0,7.0,26,0.00,,,0.00,weatherlink.com 1.10,2013-08-29 20:27:00,
2013-08-29 13:42:00,99.1,60.0,29.83,West,275,4.0,8.0,27,0.00,,,0.00,weatherlink.com 1.10,2013-08-29 20:42:00,
2013-08-29 13:57:00,98.0,60.0,29.83,West,272,7.0,9.0,28,0.00,,,0.00,weatherlink.com 1.10,2013-08-29 20:57:00,
2013-08-29 14:12:00,95.8,60.0,29.84,NW,308,5.0,10.0,30,0.00,,,0.00,weatherlink.com 1.10,2013-08-29 21:12:00,
2013-08-29 14:27:00,94.2,59.0,29.83,WNW,293,0.0,9.0,31,0.00,,,0.00,weatherlink.com 1.10,2013-08-29 21:27:00,
2013-08-29 14:42:00,93.5,58.0,29.83,WSW,251,4.0,7.0,30,0.00,,,0.00,weatherlink.com 1.10,2013-08-29 21:42:00,
2013-08-29 14:57:00,93.6,58.0,29.83,WNW,288,4.0,9.0,30,0.00,,,0.00,weatherlink.com 1.10,2013-08-29 21:57:00,
2013-08-29 15:12:00,93.6,58.0,29.82,West,266,7.0,9.0,30,0.00,,,0.00,weatherlink.com 1.10,2013-08-29 22:12:00,
2013-08-29 15:27:00,93.7,58.0,29.82,WNW,287,1.0,7.0,30,0.00,,,0.00,weatherlink.com 1.10,2013-08-29 22:27:00,
2013-08-29 15:42:00,94.5,58.0,29.83,NW,309,4.0,8.0,29,0.00,,,0.00,weatherlink.com 1.10,2013-08-29 22:42:00,
2013-08-29 15:57:00,94.3,53.0,29.82,WSW,247,2.0,8.0,25,0.00,,,0.00,weatherlink.com 1.10,2013-08-29 22:57:00,
2013-08-29 16:12:00,94.4,54.0,29.82,WNW,285,6.0,9.0,25,0.00,,,0.00,weatherlink.com 1.10,2013-08-29 23:12:00,
2013-08-29 16:27:00,92.5,53.0,29.82,NW,314,3.0,11.0,26,0.00,,,0.00,weatherlink.com 1.10,2013-08-29 23:27:00,
2013-08-29 16:42:00,93.1,54.0,29.82,West,276,7.0,10.0,27,0.00,,,0.00,weatherlink.com 1.10,2013-08-29 23:42:00,
2013-08-29 16:57:00,91.7,51.0,29.82,NW,311,4.0,10.0,25,0.00,,,0.00,weatherlink.com 1.10,2013-08-29 23:57:00,
2013-08-29 17:12:00,91.3,51.0,29.82,WNW,282,1.0,10.0,25,0.00,,,0.00,weatherlink.com 1.10,2013-08-30 00:12:00,
2013-08-29 17:27:00,90.2,51.0,29.82,NW,321,3.0,11.0,26,0.00,,,0.00,weatherlink.com 1.10,2013-08-30 00:27:00,
2013-08-29 17:42:00,89.4,51.0,29.82,WNW,297,1.0,8.0,27,0.00,,,0.00,weatherlink.com 1.10,2013-08-30 00:42:00,
2013-08-29 17:57:00,89.1,52.0,29.82,NW,304,5.0,9.0,28,0.00,,,0.00,weatherlink.com 1.10,2013-08-30 00:57:00,
2013-08-29 18:12:00,88.5,52.0,29.82,West,281,5.0,6.0,29,0.00,,,0.00,weatherlink.com 1.10,2013-08-30 01:12:00,
2013-08-29 18:27:00,88.5,53.0,29.83,WNW,291,6.0,6.0,30,0.00,,,0.00,weatherlink.com 1.10,2013-08-30 01:27:00,
2013-08-29 18:42:00,88.4,53.0,29.83,WNW,295,1.0,5.0,30,0.00,,,0.00,weatherlink.com 1.10,2013-08-30 01:42:00,
2013-08-29 18:57:00,87.0,54.0,29.83,WNW,283,1.0,6.0,32,0.00,,,0.00,weatherlink.com 1.10,2013-08-30 01:57:00,
2013-08-29 19:12:00,85.4,51.0,29.83,West,278,1.0,6.0,31,0.00,,,0.00,weatherlink.com 1.10,2013-08-30 02:12:00,
2013-08-29 19:27:00,84.8,51.0,29.84,West,279,0.0,5.0,31,0.00,,,0.00,weatherlink.com 1.10,2013-08-30 02:27:00,
2013-08-29 19:42:00,84.7,51.0,29.84,WSW,257,1.0,2.0,31,0.00,,,0.00,weatherlink.com 1.10,2013-08-30 02:42:00,
2013-08-29 19:57:00,84.5,52.0,29.85,WNW,300,0.0,1.0,32,0.00,,,0.00,weatherlink.com 1.10,2013-08-30 02:57:00,
2013-08-29 20:12:00,83.9,52.0,29.85,WNW,300,0.0,1.0,33,0.00,,,0.00,weatherlink.com 1.10,2013-08-30 03:12:00,
2013-08-29 20:27:00,83.7,56.0,29.86,WNW,283,0.0,1.0,39,0.00,,,0.00,weatherlink.com 1.10,2013-08-30 03:27:00,
2013-08-29 20:42:00,82.6,58.0,29.86,West,281,0.0,0.0,43,0.00,,,0.00,weatherlink.com 1.10,2013-08-30 03:42:00,
2013-08-29 20:57:00,81.9,60.0,29.86,SSE,150,3.0,3.0,47,0.00,,,0.00,weatherlink.com 1.10,2013-08-30 03:57:00,
2013-08-29 21:12:00,81.2,60.0,29.87,SE,135,0.0,3.0,49,0.00,,,0.00,weatherlink.com 1.10,2013-08-30 04:12:00,
2013-08-29 21:27:00,80.7,59.0,29.87,WSW,258,1.0,1.0,48,0.00,,,0.00,weatherlink.com 1.10,2013-08-30 04:27:00,
2013-08-29 21:42:00,81.3,57.0,29.87,WNW,299,3.0,3.0,43,0.00,,,0.00,weatherlink.com 1.10,2013-08-30 04:42:00,
2013-08-29 21:57:00,80.4,57.0,29.87,West,278,3.0,4.0,45,0.00,,,0.00,weatherlink.com 1.10,2013-08-30 04:57:00,
2013-08-29 22:12:00,79.5,58.0,29.87,NW,321,1.0,4.0,48,0.00,,,0.00,weatherlink.com 1.10,2013-08-30 05:12:00,
2013-08-29 22:27:00,78.9,58.0,29.88,WNW,287,1.0,4.0,49,0.00,,,0.00,weatherlink.com 1.10,2013-08-30 05:27:00,
2013-08-29 22:42:00,78.3,59.0,29.88,WNW,285,0.0,5.0,51,0.00,,,0.00,weatherlink.com 1.10,2013-08-30 05:42:00,
2013-08-29 22:57:00,77.8,59.0,29.88,WNW,301,0.0,3.0,52,0.00,,,0.00,weatherlink.com 1.10,2013-08-30 05:57:00,
2013-08-29 23:12:00,77.7,59.0,29.88,NNW,333,0.0,1.0,53,0.00,,,0.00,weatherlink.com 1.10,2013-08-30 06:12:00,
2013-08-29 23:27:00,77.4,59.0,29.89,NW,305,0.0,0.0,53,0.00,,,0.00,weatherlink.com 1.10,2013-08-30 06:27:00,
2013-08-29 23:42:00,77.1,60.0,29.88,WNW,303,0.0,1.0,55,0.00,,,0.00,weatherlink.com 1.10,2013-08-30 06:42:00,
2013-08-29 23:57:00,77.0,60.0,29.88,WNW,302,0.0,1.0,55,0.00,,,0.00,weatherlink.com 1.10,2013-08-30 06:57:00,